Simultaneous Nadir Overpasses (SNOs) Predictions

Prediction of SNOs between GOES-17 and LANDSAT-8 Satellite Orbit:

Table of predicted SNOs for the next 14.0 days since TLE Epoch: 3/7/2025
Index Date Time (GOES-17) GOES-17 Lat,Lon LANDSAT-8 Lat,Lon Distance(km) Time Diff (sec)
1 03/09/2025 17:12:32 -0.00,-104.41 0.05,-104.76 39.24 80
2 03/11/2025 16:57:39 -0.00,-104.41 -0.53,-101.80 297.22 80
3 03/12/2025 05:21:43 0.00,-104.39 -0.57,-106.99 295.55 80
4 03/14/2025 05:06:51 0.00,-104.40 0.09,-104.04 41.57 80
5 03/16/2025 04:54:49 0.01,-104.41 0.71,-101.07 378.97 69
6 03/16/2025 17:18:33 -0.00,-104.43 0.40,-106.23 204.42 80
7 03/18/2025 17:03:40 -0.01,-104.44 -0.25,-103.27 132.98 80
8 03/19/2025 05:27:43 0.00,-104.42 -0.83,-108.47 459.72 80
9 03/20/2025 16:51:27 -0.01,-104.44 -0.91,-100.31 470.21 80
10 03/21/2025 05:15:29 0.00,-104.42 -0.22,-105.50 122.49 80
